Location: Unspecified
(0.0000°N, 0.0000°E)
Time: 09:09:47
(UTC+00:00)

Cosmos 2333 Rocket - Pass Details

Date: 18 December 2025
Orbit: 837 x 865 km, 70.8° (Epoch: 14 January)

Event Time Altitude Azimuth Distance (km) Brightness Sun altitude
Rises 04:24:58 0° 7° (N) 3,410 5.2 -20.9°
Reaches altitude 10° 04:27:51 10° 20° (NNE) 2,472 4.6 -20.3°
Maximum altitude 04:32:25 25° 74° (ENE) 1,644 4.2 -19.2°
Drops below altitude 10° 04:36:58 10° 128° (SE) 2,465 5.8 -18.2°
Sets 04:39:49 0° 141° (SE) 3,398 6.5 -17.6°
